[[{"header":{"parameterUnit":"m.s-1","parameterCategory":1,"la1":30.2991,"la2":30.254,"lo1":-89.0895,"lo2":-89.0444,"dx":0.0017,"dy":0.0017,"nx":28,"ny":28,"refTime":"2022-12-15T09:00:00:Z","depth":0,"parameterNumber":2,"parameterNumberName":"U-component_of_WINDS"},"data":[0,0,0,0,0,0,0,0,0,0,0,0,0,0,0,0,0,0,0,0,0,0,0,0,0,0,0,0,0,0,0,0,0,0,0,0,0,0,0,0,0,0,0,0,0,0,0,0,0,0,0,0,0,0,0,0,0,0,2.4206,2.4207,0,2.4293,2.4294,2.4295,2.4264,2.4262,2.426,2.4259,2.4347,2.4351,2.4355,0,0,0,0,0,0,0,0,0,0,0,0,0,2.4014,2.4018,2.4206,2.4207,2.4208,2.4292,2.4294,2.4295,2.4265,2.4262,2.426,2.4258,2.4346,2.4351,2.4356,0,0,0,0,0,0,0,0,0,0,0,0,0,2.4099,2.4019,2.4206,2.4203,2.4204,2.4292,2.4294,2.4295,2.4265,2.4262,2.4259,2.4257,2.4344,2.435,2.4356,2.4453,0,0,2.4376,2.4378,0,0,0,0,0,0,0,0,2.4094,2.4106,2.4202,2.4203,2.4204,2.4265,2.4259,2.4348,2.4266,2.4242,2.4258,2.4255,2.4322,2.433,2.4353,2.4457,2.4461,2.4376,2.438,2.4383,2.4384,0,0,0,0,0,0,0,2.4088,2.4102,2.424,2.4204,2.4205,2.4198,2.4207,2.4275,2.4297,2.4244,2.4242,2.4252,2.4322,2.4347,2.4354,2.4462,2.4376,2.4381,2.4385,2.4388,2.4649,2.4653,0,0,0,0,0,0,2.4082,2.4097,2.4237,2.4243,2.4141,2.4204,2.4213,2.4248,2.4296,2.4301,2.4255,2.4251,2.4337,2.4347,2.4357,2.4473,2.4382,2.4388,2.4392,2.4646,2.465,2.4654,0,0,0,0,0,0,2.4078,2.4095,2.4234,2.417,2.4187,2.421,2.4249,2.4251,2.4276,2.4305,2.4308,2.4276,2.4336,2.4349,2.4429,2.4475,2.4391,2.4397,2.4642,2.4647,2.4652,2.4705,0,0,0,0,0,0,2.4073,2.4094,2.413,2.4171,2.419,2.4304,2.4252,2.4255,2.4287,2.4282,2.4325,2.433,2.4334,2.442,2.4435,2.4482,2.4402,2.4638,2.4645,2.465,2.4699,2.4711,2.4721,0,0,0,0,0,2.4066,2.4142,2.4132,2.4149,2.4237,2.4307,2.4318,2.4322,2.4291,2.4328,2.4346,2.4328,2.4468,2.4429,2.4446,2.4495,2.4635,2.4643,2.465,2.4694,2.4708,2.472,0,0,0,0,0,0,2.4106,2.4147,2.4137,2.4228,2.4264,2.4302,2.4348,2.4337,2.4383,2.4377,2.438,2.439,2.4472,2.4492,2.4447,2.4591,2.4547,2.4558,2.4575,2.4589,2.4599,2.4592,2.4407,0,0,0,0,0,2.4125,2.4179,2.4212,2.4289,2.4308,2.4325,2.4356,2.4356,2.4393,2.4409,2.4433,2.447,2.4523,2.4557,2.4607,2.4702,2.4711,2.4745,2.4756,2.4764,2.4773,2.4825,2.484,2.4677,2.4677,2.4677,0,0,2.4166,2.4195,2.4228,2.4298,2.4326,2.4381,2.4338,2.4399,2.444,2.4418,2.4495,2.4515,2.4556,2.4645,2.4685,2.4664,2.4821,2.4774,2.478,2.4785,2.4834,2.4849,2.4863,2.4682,2.4681,2.4681,0,0,2.4267,2.4295,2.4362,2.4392,2.4435,2.4446,2.4462,2.4502,2.4514,2.4592,2.4576,2.4625,2.4716,2.4746,2.4773,2.4888,2.4873,2.4904,2.4961,2.5011,2.5024,2.5035,2.5075,2.5089,2.4913,2.4913,2.4913,0,2.4312,2.4395,2.4398,2.446,2.4491,2.4474,2.4542,2.457,2.4628,2.4649,2.4625,2.4738,2.4765,2.486,2.4888,2.4911,2.4929,2.4898,2.5022,2.5033,2.5044,2.5082,2.5097,2.4917,2.4916,2.4916,2.4916,0,2.4448,2.4505,2.4555,2.461,2.4647,2.4712,2.4725,2.4761,2.4758,2.4772,2.4852,2.4884,2.494,2.4963,2.496,2.5057,2.5043,2.502,2.4976,2.5063,2.5098,2.5113,2.4922,2.492,2.4919,2.4919,0,0,2.4576,2.4633,2.4651,2.4676,2.4723,2.4767,2.4832,2.4886,2.4918,2.4958,2.5012,2.5089,2.5068,2.5099,2.5101,2.5145,2.5233,2.5117,2.5118,2.5136,2.5341,2.5357,2.5373,2.5224,2.5227,2.5229,2.5337,0,2.468,2.4793,2.4798,2.49,2.4953,2.4939,2.4994,2.5029,2.5044,2.5092,2.5108,2.5163,2.5132,2.515,2.5194,2.5213,2.5274,2.5205,2.5273,2.5275,2.5261,2.5392,2.5409,2.551,2.5351,2.5354,2.5355,0,2.4817,2.4862,2.497,2.5009,2.5032,2.5082,2.5132,2.5178,2.5217,2.5225,2.526,2.5255,2.5321,2.5276,2.5366,2.532,2.5348,2.5362,2.5366,2.5371,2.5319,2.54,2.5542,2.5556,2.5378,2.5376,2.5374,0,2.4899,2.4986,2.5062,2.5084,2.5132,2.5167,2.5189,2.5226,2.5258,2.5303,2.5324,2.5376,2.5404,2.5444,2.5453,2.5419,2.5543,2.5499,2.5551,2.5551,2.5576,2.5574,2.5723,2.5597,2.5597,2.5597,2.5596,0,2.5015,2.5081,2.5099,2.5145,2.5219,2.5225,2.5297,2.5317,2.535,2.5399,2.539,2.5437,2.5447,2.5496,2.5504,2.5577,2.559,2.5598,2.5599,2.5598,2.5597,2.5615,2.5608,2.5601,2.56,2.5599,2.5598,0,2.5117,2.5132,2.5213,2.5253,2.5264,2.5316,2.535,2.5394,2.5409,2.5472,2.5487,2.5509,2.5567,2.558,2.5648,2.5654,2.574,2.5735,2.5726,2.5726,2.5776,2.5771,2.5941,2.5964,2.5824,2.5825,2.5827,0,2.519,2.524,2.5285,2.5317,2.5341,2.5394,2.5427,2.5435,2.547,2.5519,2.5558,2.5614,2.5659,2.5751,2.5774,2.5826,2.5821,2.5877,2.5829,2.5826,2.582,2.5817,2.5821,2.5886,2.5887,2.5889,2.589,0,2.5316,2.5321,2.5369,2.5421,2.546,2.5501,2.554,2.5567,2.5581,2.5621,2.5679,2.5714,2.5784,2.584,2.5892,2.5915,2.5904,2.5905,2.592,2.5918,2.5911,2.5914,2.575,2.5901,2.59,2.5899,2.5898,2.5898,2.5405,2.5449,2.5487,2.5541,2.5571,2.5608,2.5652,2.5672,2.572,2.5777,2.578,2.5843,2.5882,2.5951,2.5977,2.6026,2.6009,2.603,2.6036,2.604,2.6044,2.5904,2.6036,2.6036,2.6036,2.6035,2.6035,0,2.553,2.5554,2.5604,2.5658,2.5701,2.5688,2.5731,2.5767,2.5823,2.586,2.5905,2.5972,2.6026,2.6053,2.6107,2.6141,2.6138,2.6155,2.6152,2.6157,2.6057,2.6039,2.6157,2.6157,2.6157,2.6157,2.6157,2.6157,2.56,2.5673,2.5683,2.5771,2.5795,2.5857,2.5882,2.5916,2.5945,2.602,2.6065,2.6083,2.6116,2.6172,2.6221,2.6228,2.6247,2.6266,2.6271,2.6177,2.6164,2.6152,2.6135,2.6271,2.6271,2.6366,2.6367,2.6367]},{"header":{"parameterUnit":"m.s-1","parameterCategory":1,"la1":30.2991,"la2":30.254,"lo1":-89.0895,"lo2":-89.0444,"dx":0.0017,"dy":0.0017,"nx":28,"ny":28,"refTime":"2022-12-15T09:00:00:Z","depth":0,"parameterNumber":3,"parameterNumberName":"V-component_of_WINDS"},"data":[0,0,0,0,0,0,0,0,0,0,0,0,0,0,0,0,0,0,0,0,0,0,0,0,0,0,0,0,0,0,0,0,0,0,0,0,0,0,0,0,0,0,0,0,0,0,0,0,0,0,0,0,0,0,0,0,0,0,-2.4429,-2.443,0,-2.4525,-2.4526,-2.4528,-2.4523,-2.4521,-2.452,-2.4519,-2.4617,-2.4621,-2.4625,0,0,0,0,0,0,0,0,0,0,0,0,0,-2.4241,-2.4244,-2.4429,-2.443,-2.4432,-2.4525,-2.4527,-2.4528,-2.4523,-2.4521,-2.4519,-2.4518,-2.4616,-2.462,-2.4625,0,0,0,0,0,0,0,0,0,0,0,0,0,-2.4328,-2.4245,-2.4429,-2.444,-2.4442,-2.4525,-2.4527,-2.4528,-2.4523,-2.4521,-2.4519,-2.4517,-2.4614,-2.462,-2.4626,-2.4703,0,0,-2.4643,-2.4646,0,0,0,0,0,0,0,0,-2.4323,-2.4335,-2.4438,-2.444,-2.4442,-2.451,-2.4496,-2.4587,-2.4524,-2.4493,-2.4519,-2.4516,-2.4583,-2.4591,-2.4614,-2.4708,-2.4712,-2.4644,-2.4648,-2.465,-2.4652,0,0,0,0,0,0,0,-2.4317,-2.4331,-2.4467,-2.4439,-2.4442,-2.4441,-2.4451,-2.4513,-2.4548,-2.4495,-2.4495,-2.4506,-2.4584,-2.4608,-2.4616,-2.4713,-2.4644,-2.4649,-2.4653,-2.4655,-2.4875,-2.4877,0,0,0,0,0,0,-2.4309,-2.4326,-2.4464,-2.447,-2.4376,-2.4446,-2.4457,-2.449,-2.4547,-2.4554,-2.4508,-2.4506,-2.4599,-2.4609,-2.462,-2.4713,-2.465,-2.4655,-2.4659,-2.4872,-2.4875,-2.4878,0,0,0,0,0,0,-2.4305,-2.4321,-2.446,-2.4398,-2.4416,-2.4451,-2.4488,-2.4493,-2.4518,-2.4557,-2.4563,-2.4527,-2.4598,-2.4611,-2.4682,-2.4717,-2.4658,-2.4663,-2.487,-2.4873,-2.4876,-2.4902,0,0,0,0,0,0,-2.4299,-2.432,-2.435,-2.4399,-2.4419,-2.4521,-2.4491,-2.4497,-2.4528,-2.4526,-2.4576,-2.4583,-2.4597,-2.4673,-2.4688,-2.4724,-2.4668,-2.4867,-2.4871,-2.4875,-2.4898,-2.4906,-2.4912,0,0,0,0,0,-2.4293,-2.4353,-2.4351,-2.4368,-2.4457,-2.4523,-2.4535,-2.4551,-2.453,-2.4561,-2.4586,-2.4581,-2.4711,-2.4681,-2.4697,-2.4735,-2.4865,-2.487,-2.4875,-2.4895,-2.4904,-2.4912,0,0,0,0,0,0,-2.4307,-2.436,-2.4358,-2.4437,-2.4476,-2.4523,-2.4561,-2.456,-2.4606,-2.4602,-2.462,-2.4631,-2.4702,-2.4726,-2.4691,-2.4813,-2.4785,-2.4794,-2.4794,-2.4804,-2.4811,-2.4803,-2.4673,0,0,0,0,0,-2.432,-2.4369,-2.4412,-2.4477,-2.4497,-2.4526,-2.4555,-2.4564,-2.4605,-2.4621,-2.4652,-2.4692,-2.4742,-2.4774,-2.4822,-2.4902,-2.4912,-2.4936,-2.4943,-2.4949,-2.4956,-2.4999,-2.5009,-2.4895,-2.4895,-2.4895,0,0,-2.4346,-2.438,-2.4411,-2.4481,-2.4512,-2.4563,-2.454,-2.4594,-2.4632,-2.463,-2.4698,-2.4722,-2.4768,-2.4843,-2.4878,-2.4865,-2.499,-2.4955,-2.4959,-2.4964,-2.5005,-2.5016,-2.5026,-2.4898,-2.4898,-2.4897,0,0,-2.4419,-2.445,-2.4507,-2.4539,-2.4586,-2.4605,-2.4619,-2.4666,-2.4682,-2.4751,-2.475,-2.4795,-2.4881,-2.4913,-2.4941,-2.5025,-2.5022,-2.5041,-2.5078,-2.5119,-2.5128,-2.5136,-2.5166,-2.5176,-2.5048,-2.5048,-2.5048,0,-2.4445,-2.4521,-2.4537,-2.4592,-2.4622,-2.4623,-2.468,-2.471,-2.4771,-2.4792,-2.4777,-2.4884,-2.4915,-2.4997,-2.5018,-2.5041,-2.5056,-2.5035,-2.5126,-2.5134,-2.5142,-2.517,-2.5181,-2.505,-2.505,-2.5049,-2.5049,0,-2.455,-2.4603,-2.4644,-2.4702,-2.4737,-2.4793,-2.4817,-2.4851,-2.4857,-2.4877,-2.4947,-2.4984,-2.5039,-2.506,-2.5066,-2.5143,-2.5133,-2.5122,-2.5094,-2.5154,-2.5181,-2.5192,-2.5052,-2.5052,-2.5051,-2.5051,0,0,-2.4635,-2.4701,-2.4716,-2.4742,-2.4794,-2.4835,-2.4891,-2.4945,-2.4973,-2.5015,-2.5062,-2.5134,-2.5124,-2.5155,-2.5165,-2.5202,-2.5265,-2.5186,-2.5187,-2.5199,-2.5352,-2.5359,-2.5372,-2.5264,-2.5266,-2.5268,-2.5348,0,-2.4713,-2.4812,-2.4827,-2.4914,-2.4962,-2.4963,-2.5012,-2.5049,-2.507,-2.5114,-2.5136,-2.5187,-2.517,-2.5188,-2.5225,-2.525,-2.5296,-2.5245,-2.5307,-2.5309,-2.5295,-2.5386,-2.5394,-2.5468,-2.5358,-2.536,-2.5361,0,-2.4817,-2.4861,-2.4952,-2.4997,-2.5018,-2.5062,-2.5112,-2.5154,-2.5196,-2.5208,-2.5243,-2.5249,-2.5306,-2.5277,-2.5356,-2.532,-2.5347,-2.5363,-2.5366,-2.5372,-2.5338,-2.5393,-2.5492,-2.5503,-2.5378,-2.5377,-2.5376,0,-2.4868,-2.4951,-2.5016,-2.5038,-2.5093,-2.5123,-2.5147,-2.5187,-2.5218,-2.5262,-2.5282,-2.5333,-2.536,-2.5399,-2.5417,-2.5394,-2.5495,-2.5467,-2.5506,-2.5506,-2.5527,-2.5525,-2.563,-2.5546,-2.5545,-2.5545,-2.5545,0,-2.4953,-2.5008,-2.5039,-2.5079,-2.5142,-2.5159,-2.522,-2.5244,-2.5279,-2.5323,-2.5328,-2.5369,-2.5392,-2.5437,-2.5452,-2.5514,-2.5527,-2.5538,-2.5541,-2.5537,-2.5536,-2.5555,-2.555,-2.5548,-2.5547,-2.5547,-2.5546,0,-2.502,-2.5044,-2.5115,-2.516,-2.5173,-2.5217,-2.5256,-2.5294,-2.5314,-2.537,-2.5385,-2.5416,-2.5469,-2.5492,-2.5557,-2.5567,-2.5639,-2.5639,-2.5624,-2.5625,-2.5663,-2.5659,-2.5783,-2.58,-2.5704,-2.5705,-2.5706,0,-2.5073,-2.5115,-2.5165,-2.5195,-2.522,-2.5268,-2.53,-2.5319,-2.5351,-2.5402,-2.5435,-2.5488,-2.5531,-2.5615,-2.5644,-2.5694,-2.5694,-2.5735,-2.5702,-2.5696,-2.5694,-2.5691,-2.5695,-2.574,-2.5741,-2.5742,-2.5743,0,-2.5162,-2.5171,-2.5217,-2.5266,-2.5304,-2.5344,-2.5382,-2.5407,-2.5431,-2.5468,-2.5522,-2.5556,-2.5622,-2.5674,-2.5726,-2.575,-2.5751,-2.5753,-2.5764,-2.576,-2.575,-2.5755,-2.564,-2.575,-2.5749,-2.5748,-2.5748,-2.5748,-2.5224,-2.5261,-2.5302,-2.5352,-2.5383,-2.5419,-2.5458,-2.5483,-2.5528,-2.5583,-2.5591,-2.5649,-2.569,-2.5759,-2.5785,-2.583,-2.582,-2.5837,-2.5841,-2.5845,-2.5847,-2.5743,-2.584,-2.584,-2.584,-2.5839,-2.5839,0,-2.5313,-2.5339,-2.5385,-2.5439,-2.5478,-2.5475,-2.5518,-2.5551,-2.5601,-2.5639,-2.5682,-2.5743,-2.5794,-2.5827,-2.5878,-2.5908,-2.5909,-2.592,-2.5918,-2.5923,-2.5854,-2.5838,-2.5918,-2.5918,-2.5918,-2.5918,-2.5918,-2.5918,-2.5364,-2.5427,-2.5441,-2.552,-2.5546,-2.5602,-2.5626,-2.566,-2.569,-2.5758,-2.58,-2.5821,-2.5857,-2.591,-2.5957,-2.5965,-2.5983,-2.5995,-2.6003,-2.5937,-2.5928,-2.5921,-2.5906,-2.5999,-2.5999,-2.6069,-2.6069,-2.607]}]]